Location: Newark
(7.0858°N, 171.3717°E)
Time: 12:47:39
(UTC+00:00)

Vanguard 1 Rocket - Pass Details

Date: 05 December 2020
Orbit: 655 x 4222 km, 34.3° (Epoch: 23 January)

Event Time Altitude Azimuth Distance (km) Brightness Sun altitude
Rises 06:47:56 0° 201° (SSW) 4,655 11.7 -7.9°
Reaches altitude 10° 06:51:14 10° 188° (S) 4,098 11.2 -8.7°
Maximum altitude 07:00:54 28° 133° (SE) 3,990 10.4 -10.9°
Enters shadow 07:14:25 13° 86° (E) 6,307 11.1 -14.0°
